Regional Weather Roundup
Issued by NWS Upton, NY

Home | Current Version | Previous Version | Text Only | Print | Product List | Glossary On
Versions: 1 2 3 4 5 6 7 8 9 10 11 12 13 14 15 16 17 18 19 20 21 22 23 24 25 26 27 28 29 30 31 32 33 34 35 36 37 38 39 40 41 42 43 44 45 46 47 48 49 50
000
ASUS41 KOKX 211605
RWROKX

REGIONAL WEATHER ROUNDUP
NATIONAL WEATHER SERVICE NEW YORK NY
1100 AM EST SUN DEC 21 2014

NOTE: "FAIR" INDICATES FEW OR NO CLOUDS BELOW 12,000 FEET WITH NO
SIGNIFICANT WEATHER AND/OR OBSTRUCTIONS TO VISIBILITY.

NYZ071-072-176-178-NJZ106-104-211700-
NEW YORK CITY METRO AREA


CITY           SKY/WX    TMP DP  RH WIND       PRES   REMARKS
CENTRAL PARK   CLOUDY    32  24  72 NW7       30.33F WCI  26
LAGUARDIA APRT CLOUDY    33  27  78 NW9       30.32S WCI  25
KENNEDY INTL   CLOUDY    35  26  69 NW7       30.32F WCI  29
NEWARK/LIBERTY CLOUDY    34  26  72 N8        30.32F WCI  27
BRNX BOT. GARD   N/A    N/A N/A N/A NW6       30.33F
TETERBORO      CLOUDY    33  25  72 NW6       30.32S WCI  28
$$

NYZ177-179-078>081-211700-
LONG ISLAND NEW YORK

CITY           SKY/WX    TMP DP  RH WIND       PRES   REMARKS
FARMINGDALE    CLOUDY    34  28  79 NW7       30.30F WCI  28
ISLIP          CLOUDY    34  28  79 W8        30.28S WCI  27
SHIRLEY        CLOUDY    36  31  82 NW7       30.29S WCI  30
WESTHAMPTON    CLOUDY    37  34  89 N5        30.29S WCI  33
MONTAUK POINT    N/A     40  37  89 NE10G20   30.25F WCI  33
$$

NYZ052-065-067-211700-
HUDSON VALLEY

CITY           SKY/WX    TMP DP  RH WIND       PRES   REMARKS
WHITE PLAINS   CLOUDY    31  26  82 NW8       30.29S WCI  23
NEWBURGH       LGT SNOW  28  27  93 VRB5      30.33S WCI  23
MONTGOMERY     CLOUDY    31  26  82 NE5       30.31F WCI  26
POUGHKEEPSIE   LGT SNOW  31  26  82 NW7       30.34S WCI  24
ALBANY         FLURRIES  29  23  78 N5        30.36S WCI  24
$$

NJZ001-105-106-008-010-013-015-019>022-104-211700-
NEW JERSEY

CITY           SKY/WX    TMP DP  RH WIND       PRES   REMARKS
NEWARK/LIBERTY CLOUDY    34  26  72 N8        30.32F WCI  27
TETERBORO      CLOUDY    33  25  72 NW6       30.32S WCI  28
CALDWELL       FRZ DRZL  32  25  75 VRB5      30.33S WCI  27
MORRISTOWN     CLOUDY    34  27  75 NE6       30.32F WCI  29
SOMERVILLE     CLOUDY    34  25  69 NW6       30.31F WCI  29
SUSSEX         CLOUDY    30  27  88 E3        30.31F
ANDOVER          N/A     31  25  78 NE5       30.31S WCI  26
TRENTON        CLOUDY    35  22  58 NW8       30.32S WCI  29
MILLVILLE      CLOUDY    36  22  56 NW6       30.34S WCI  31
ATLANTIC CITY  SUNNY     36  23  59 NW8       30.33F WCI  30
WRIGHTSTOWN    MOSUNNY   37  24  58 NW9       30.30F WCI  30
TOMS RIVER     MOSUNNY   36  21  55 NW13      30.32F WCI  27
BELMAR         CLOUDY    34  21  60 NW7       30.31S WCI  28
$$

PAZ047>061-062-071-211700-
EASTERN PENNSYLVANIA

CITY           SKY/WX    TMP DP  RH WIND       PRES   REMARKS
PHILADELPHIA   MOSUNNY   37  21  52 NW8       30.35F WCI  31
ALLENTOWN      CLOUDY    33  21  61 N7        30.34R WCI  27
SCRANTON       CLOUDY    30  19  63 N8        30.30F WCI  22
$$

CTZ002-004>006-009-010-012-RIZ004-006-007-MAZ004-011-015-211700-
SOUTHERN NEW ENGLAND
 IN CT

CITY           SKY/WX    TMP DP  RH WIND       PRES   REMARKS
BRADLEY INTL   LGT SNOW  33  29  85 N8        30.30F FOG     WCI  26
HARTFORD       LGT SNOW  32  30  92 VRB7      30.31F VSB 1   WCI  26
DANBURY        LGT SNOW  32  27  81 CALM      30.30S
WTRBRY/OXFORD  LGT SNOW  30  25  80 N7        30.28S FOG     WCI  23
BRIDGEPORT     CLOUDY    36  32  85 N8        30.30S WCI  30
MERIDEN        CLOUDY    33  29  85 N6        30.30F FOG     WCI  28
NEW HAVEN      CLOUDY    36  31  82 N9        30.29S HAZE    WCI  29
CHESTER        CLOUDY    32  32 100 N6        30.27F WCI  26
GROTON         CLOUDY    36  34  92 N8        30.26F WCI  30
WILLIMANTIC    LGT SNOW  33  30  88 N6        30.30F FOG     WCI  28

 IN RI

CITY           SKY/WX    TMP DP  RH WIND       PRES   REMARKS
PROVIDENCE     LGT SNOW  32  30  92 N10       30.31S VSB 1   WCI  24
BLOCK ISLAND   CLOUDY    39  36  87 NE14G21   30.25F WCI  31
WESTERLY       CLOUDY    38  34  85 N9        30.27F WCI  31

 IN MA

CITY           SKY/WX    TMP DP  RH WIND       PRES   REMARKS
BOSTON         CLOUDY    31  25  78 N7        30.33F WCI  24
WORCESTER      CLOUDY    27  26  96 NE6       30.27F WCI  20
WESTFIELD      LGT SNOW  32  28  85 N9        30.31F FOG     WCI  24
PROVINCETOWN   CLOUDY    39  34  81 E7        30.28F WCI  34
NANTUCKET      CLOUDY    44  35  70 E8        30.26F
$$

ANZ330-335-338-340-345-350-353-355-211700-
COASTAL MARINE OBSERVATIONS


STATION/POSITION TIME  SKY/WX   TEMP    WIND        PRES    VSBY  WAVE
                                AIR SEA DIR/SP/G                  HT/PER
                 (UTC)          (F)     (DEG/KT/KT) (MB)    (MI)  (FT/S)
NY HARB ENTRANCE 1600            35 45  320/  6/ 10 1026.8          1/11
4S FIRE IS       1600               45                N/A           1/10
20S FIRE ISLAND  1500            37 49              1026.7          1/10
23SW MTP         1600                                 N/A           3/ 5
HUDSON CANYON    1600            41 55  310/ 10/ 12 1025.1          2/ 5
EXECUTION ROCKS  1600            34 41  320/  6/ 10   N/A
WESTERN LI SOUND 1600            34     330/  6/  8   N/A           0
CENTRAL LI SOUND 1500            34 44   10/  8/ 10   N/A           0
EASTERN LI SOUND NOT AVBL
ROBBINS REEF     1600            32     340/  5/  9 1025.6
$$


>>>>>>>>>>>>>>>>>>>>>>>>>>>> KEY <<<<<<<<<<<<<<<<<<<<<<<<<<<
>                                                          <
>     SKY/WX - SKY CONDITION/PRESENT WEATHER               <
>     TMP    - TEMPERATURE IN FAHRENHEIT                   <
>     DP     - DEWPOINT IN FAHRENHEIT                      <
>     RH     - RELATIVE HUMIDITY IN PERCENT                <
>     WIND   - DIRECTION AND SPEED IN MPH                  <
>     PRES   - MEAN SEA LEVEL PRESSURE IN INCHES OF HG     <
>     WCI    - WIND CHILL INDEX                            <
>     VSB    - VISIBILITY IN MILES                         <
>     HX     - HEAT INDEX                                  <
>     TC     - TEMPERATURE IN CELSIUS                      <
>     VRB    - VARIABLE WIND DIRECTION                     <
>                                                          <
>>>>>>>>>>>>>>>>>>>>>>>>>>>> KEY <<<<<<<<<<<<<<<<<<<<<<<<<<<




USA.gov is the U.S. government's official web portal to all federal, state and local government web resources and services.